Temperature
21 21 20 20 20 20 22 24 25 24 24 24 24 23 22 22 21 20 20 20 20 20 20 20 20 20 20 20 20 20 20 20 19 19 19 19 19 19 19 19 19 19 19 19 19 19 19 19 19
22 21 21 20 20 21 23 24 24 25 24 24 24 23 22 21 20 20 19 20 20 20 20 20 20 20 20 20 20 19 19 19 19 19 19 19 19 19 19 19 19 19 19 19 19 19 19 18 18
22 21 21 20 21 22 23 25 25 25 25 25 24 23 22 21 20 20 20 20 20 20 20 20 20 20 20 20 20 19 19 19 19 19 19 19 19 19 19 19 19 19 19 19 19 19 18 18 18
22 21 21 21 23 24 25 25 25 25 25 24 23 22 22 21 21 20 20 20 20 20 20 20 20 20 20 20 20 19 19 19 19 19 19 19 19 19 19 19 19 19 19 19 19 19 18 18 18
22 22 21 22 23 25 26 26 26 25 24 24 23 21 21 21 21 21 20 20 21 20 20 20 20 20 20 20 19 19 19 19 19 19 19 19 19 19 19 19 19 19 19 19 19 19 18 18 18
22 21 21 22 24 26 26 26 25 24 24 23 22 21 21 21 21 21 21 21 21 20 20 20 20 20 20 19 19 19 19 19 19 19 19 19 19 19 19 19 19 19 19 19 19 19 19 18 18
22 21 22 24 24 25 26 26 25 24 24 23 23 21 21 21 21 21 21 21 20 20 20 20 20 20 19 19 19 19 19 19 19 19 19 19 19 19 19 19 19 19 19 19 19 19 19 19 18
23 22 23 24 25 25 26 26 26 25 24 24 23 21 21 21 21 21 21 20 20 20 20 20 20 20 19 19 19 19 19 19 19 19 19 19 19 19 19 19 19 18 19 18 18 18 18 18 18
24 22 23 24 25 26 27 26 26 25 25 24 24 23 22 21 21 21 20 20 20 20 20 20 20 20 19 19 19 19 19 19 19 19 19 19 19 18 18 18 18 18 18 18 18 18 18 18 18
24 22 24 26 26 26 27 26 26 25 24 23 23 22 22 21 21 21 20 20 20 20 20 20 20 20 19 19 19 19 19 19 19 19 19 19 19 18 18 18 18 18 18 18 18 18 18 18 18
25 24 26 27 28 27 27 27 26 25 23 23 22 22 22 21 21 21 21 21 21 20 20 20 20 20 20 19 19 19 19 19 19 18 18 19 18 18 18 18 18 18 18 18 18 18 18 18 18
25 26 27 28 28 28 27 27 26 25 25 24 24 23 22 22 21 21 21 21 21 21 20 20 20 20 19 19 19 19 19 19 19 18 18 18 18 18 18 18 18 18 18 18 18 18 18 18 18
26 27 28 28 28 28 28 27 26 25 25 24 23 23 22 22 22 22 21 21 21 21 20 20 20 20 19 19 19 19 19 19 19 18 18 18 18 18 18 18 18 18 18 18 18 18 18 18 18
27 27 28 28 28 28 27 26 26 25 25 24 23 23 22 22 22 22 21 21 21 21 21 20 20 20 20 19 19 19 19 19 19 18 18 18 18 18 18 18 18 18 18 18 18 18 18 18 18
28 26 27 27 28 27 27 25 25 25 24 23 23 23 22 22 22 22 22 22 21 21 21 20 20 20 19 19 19 19 19 19 19 18 18 18 18 18 18 18 18 18 18 18 18 18 18 18 18
26 25 25 27 27 27 26 24 25 25 24 23 23 23 23 22 22 22 22 22 21 21 21 21 20 20 20 19 19 19 19 19 19 18 18 18 18 18 18 18 18 18 18 18 18 18 18 18 18
25 24 25 26 27 27 26 24 25 25 25 24 23 23 23 22 22 22 22 22 22 21 21 20 20 20 19 19 19 19 19 19 18 18 18 18 18 18 18 18 18 18 18 18 18 18 18 18 18
24 24 25 26 27 27 25 24 25 25 25 24 24 23 23 22 22 22 22 22 22 21 21 21 20 20 19 19 19 19 18 18 18 18 18 18 18 18 18 18 18 18 18 18 18 18 18 18 18
26 26 25 26 27 26 25 25 25 25 25 24 24 23 23 23 22 22 22 22 22 21 21 20 20 20 19 19 19 19 18 18 18 18 18 18 18 18 18 18 18 18 18 18 18 18 18 18 18
26 25 25 26 27 26 25 24 24 25 25 25 24 24 23 22 22 22 22 22 21 21 21 21 20 20 20 19 19 19 18 18 18 18 18 18 18 18 18 18 18 18 18 18 18 17 18 18 18
26 25 26 26 26 26 25 24 24 24 25 25 24 24 24 23 23 22 22 22 21 21 21 21 20 20 19 19 19 18 18 18 18 18 18 18 18 18 18 18 18 18 18 18 17 17 17 18 17
26 27 27 27 25 23 24 22 23 23 24 24 24 24 24 23 23 23 22 22 21 21 21 21 20 20 19 19 19 18 18 18 18 18 18 18 18 18 18 18 18 18 18 17 17 17 17 17 17
27 28 28 27 25 23 23 22 22 23 23 23 23 24 24 23 23 23 22 22 22 22 21 21 20 20 19 19 19 18 18 18 18 18 18 18 18 18 18 17 17 18 17 17 17 17 17 17 17
28 27 26 24 22 23 23 23 22 22 23 23 23 24 23 23 23 23 22 22 22 22 21 21 20 20 19 19 19 19 18 18 18 18 17 17 17 17 17 17 17 17 17 17 17 17 17 17 17
27 24 23 23 22 22 23 23 22 23 24 24 24 24 24 23 23 23 22 22 22 21 21 21 20 20 19 19 19 19 18 18 18 18 18 17 17 17 17 17 17 17 17 17 17 17 17 17 17
26 24 23 23 22 22 23 23 23 24 25 25 25 24 24 23 23 22 22 22 22 22 21 21 20 20 20 19 19 19 18 18 18 18 18 17 17 17 17 17 17 17 17 17 17 17 17 17 17
27 24 23 22 22 22 22 23 23 24 24 24 24 23 23 23 23 22 22 22 22 22 21 21 21 20 20 19 19 19 18 18 18 18 17 17 17 17 17 17 17 17 17 17 17 17 17 17 17
27 25 22 21 22 22 22 23 22 23 23 23 23 23 23 23 23 22 22 22 22 21 21 21 20 20 20 19 19 18 18 18 18 17 17 17 17 17 17 17 17 17 17 17 17 16 16 16 16
26 25 22 20 20 21 21 22 24 23 22 23 23 23 23 23 23 22 22 22 21 21 21 20 20 20 20 19 19 18 18 18 17 17 17 17 17 17 17 17 17 17 16 16 16 16 16 16 16
26 25 22 22 21 20 20 21 24 23 23 23 23 23 23 23 23 22 22 21 21 21 21 20 20 20 19 19 19 18 18 18 17 17 17 17 17 17 17 17 16 16 16 16 16 16 16 16 16
Wind_Speed
7 5 3 1 2 3 2 2 4 6 5 7 11 11 9 7 5 5 3 8 9 7 8 10 12 14 14 14 13 13 14 14 14 15 15 15 14 14 13 13 13 13 13 12 12 10 10 9 9
5 4 1 1 3 3 2 4 9 10 10 11 12 11 9 7 6 7 4 7 10 9 9 10 13 14 14 14 14 14 15 15 16 16 15 14 14 13 12 12 12 12 12 12 11 10 9 8 8
4 3 0 2 1 3 3 5 9 10 10 8 7 7 6 5 6 5 7 10 9 8 9 11 14 15 15 15 14 15 15 15 15 15 14 14 13 12 12 12 12 11 11 10 10 9 8 7 7
1 1 1 2 2 2 4 5 9 10 9 8 9 7 5 4 5 9 12 12 10 7 9 13 15 16 15 15 15 15 14 14 14 13 13 12 12 12 12 11 11 11 10 9 9 8 7 6 6
1 1 3 2 2 2 4 6 9 9 6 8 10 8 5 5 13 15 13 12 11 7 8 12 15 15 15 15 14 14 14 13 13 12 12 11 10 10 10 10 10 10 9 9 8 6 6 5 5
0 2 2 2 2 4 4 7 10 12 11 9 10 8 4 8 13 13 12 10 9 9 8 11 14 14 14 14 14 13 13 12 12 11 11 10 9 9 9 9 9 9 8 8 7 6 5 4 4
1 1 1 2 3 4 5 6 8 11 9 6 7 7 5 7 11 13 11 10 9 9 8 7 10 12 13 13 13 12 12 11 11 10 10 10 9 8 8 8 8 8 7 7 6 5 4 4 3
3 1 1 1 4 4 5 5 8 11 8 8 6 8 8 9 11 12 11 10 9 7 6 6 7 8 9 10 11 11 11 10 10 9 9 8 7 7 7 7 7 7 6 6 5 4 3 3 3
2 2 1 2 4 4 6 7 6 8 9 5 4 7 13 15 15 13 10 8 8 8 5 5 6 6 7 8 9 9 9 9 8 7 7 6 4 4 5 6 6 6 6 5 5 4 3 3 3
3 2 3 4 5 6 5 7 7 7 9 7 10 11 15 15 14 13 12 10 8 7 6 5 5 6 6 6 7 6 6 6 5 5 5 5 4 3 4 4 5 5 5 4 4 3 3 2 2
3 4 3 2 5 6 6 6 7 10 7 12 17 16 16 15 13 12 11 10 9 8 7 6 5 6 5 4 5 4 4 4 5 5 5 4 3 2 2 2 2 3 3 3 3 2 2 1 1
2 4 4 2 3 5 5 6 7 8 9 15 18 18 15 15 13 12 11 10 9 8 7 6 6 5 5 5 4 4 3 3 3 4 5 4 3 2 2 2 2 2 2 2 2 1 2 1 2
1 2 1 2 2 4 7 8 8 8 13 16 17 16 15 14 12 10 11 10 9 8 7 7 6 6 5 4 3 4 3 4 4 4 5 5 3 2 2 2 2 2 2 2 1 1 1 1 1
3 1 1 2 3 4 8 7 6 9 14 15 16 14 14 14 12 10 10 10 9 9 8 7 7 6 5 4 3 3 4 5 4 4 5 6 5 3 2 1 1 1 2 1 1 1 1 1 1
0 2 3 0 3 4 9 5 7 13 15 15 14 13 13 12 12 12 12 11 10 9 8 7 8 6 6 5 4 4 4 5 4 4 5 5 5 4 3 2 1 1 1 1 0 1 0 0 0
2 3 2 3 2 3 6 5 8 14 16 14 13 13 12 10 11 12 12 11 10 9 8 7 7 7 5 4 4 3 4 4 4 4 4 4 5 5 4 2 1 1 1 1 1 1 1 1 0
2 0 2 4 3 4 4 5 7 11 15 14 13 12 12 10 10 10 12 11 11 10 9 7 6 6 5 4 3 3 3 3 4 4 3 3 4 4 3 2 1 1 1 1 1 1 1 0 0
4 3 3 5 4 1 3 4 6 8 12 13 13 12 12 12 11 11 11 11 10 9 9 8 7 6 5 3 3 2 2 1 2 3 3 3 4 4 3 2 1 1 1 1 1 1 1 1 0
4 3 4 6 3 1 3 5 6 8 10 11 10 11 12 11 10 11 11 11 10 9 8 7 7 6 5 3 3 2 2 1 1 2 3 3 3 4 3 2 1 1 2 1 1 1 1 1 1
4 3 4 5 4 1 2 3 7 8 11 13 15 14 13 11 10 11 10 10 10 10 9 8 7 7 6 4 3 3 3 2 2 1 2 2 3 3 3 3 2 1 1 1 1 1 1 1 1
6 6 6 5 3 2 2 2 2 5 6 8 11 12 13 14 14 13 12 10 10 9 9 9 7 6 6 5 3 2 2 2 1 1 1 1 3 3 3 3 2 2 2 2 1 2 2 1 0
7 8 6 4 2 2 3 2 5 5 5 8 10 10 12 13 12 12 12 11 11 11 10 8 7 7 6 6 6 5 4 3 3 2 2 1 2 2 3 3 3 3 2 2 1 2 1 2 0
8 7 3 3 4 1 0 3 5 3 6 9 10 12 12 12 14 14 14 14 12 11 10 8 7 7 7 7 7 6 4 3 2 2 2 1 1 1 2 3 2 2 2 2 2 1 1 2 2
5 1 5 5 4 1 4 3 5 6 10 9 10 11 11 11 12 12 11 11 10 10 9 8 8 7 7 7 7 7 6 5 3 2 2 1 1 1 1 2 2 2 2 2 2 2 2 2 2
2 5 4 5 4 4 3 2 6 8 9 10 12 12 11 11 11 11 11 11 10 10 10 9 9 8 8 8 8 7 7 6 5 4 4 3 1 1 2 2 2 2 2 2 2 2 2 2 2
3 8 7 5 5 5 2 3 6 5 4 6 8 10 11 10 11 12 12 11 10 11 11 10 9 8 8 8 7 6 6 5 4 5 4 4 3 3 3 3 3 3 2 3 2 2 3 2 2
3 3 8 7 2 1 3 3 4 1 2 4 6 9 11 10 10 11 11 10 10 10 10 10 9 8 8 9 7 6 6 5 5 4 4 3 3 3 3 3 3 2 2 2 3 2 3 2 2
6 6 5 5 4 2 3 3 4 4 4 6 8 9 9 9 9 10 10 9 8 9 8 8 9 9 7 7 7 6 5 5 5 4 4 3 3 2 2 2 3 3 3 3 2 2 2 2 3
0 3 5 5 5 6 3 6 5 8 9 9 9 8 10 11 11 10 9 9 8 7 7 8 8 7 7 7 6 5 5 5 5 4 4 4 4 4 4 3 3 3 3 3 2 3 2 2 2
5 5 7 5 3 4 4 6 4 4 6 8 7 8 9 10 9 9 9 8 7 7 8 8 7 7 7 7 6 5 5 4 4 4 4 4 5 4 4 3 3 3 3 2 3 3 2 2 3
Wind_Direction
187 179 178 189 35 46 54 36 94 77 60 65 77 84 82 69 92 128 141 133 131 135 137 134 127 125 123 121 119 117 116 119 120 120 119 119 120 122 122 124 125 126 127 129 128 129 127 125 125
173 183 196 44 63 63 66 95 91 98 116 105 83 82 79 72 87 110 115 132 130 133 134 133 128 126 125 122 118 114 114 117 119 119 120 120 123 125 125 125 126 128 130 132 134 135 135 134 133
189 200 170 54 78 138 132 113 107 106 112 99 90 67 74 99 112 120 139 140 128 127 134 136 132 130 128 124 120 116 115 116 118 119 120 122 125 126 127 127 128 130 132 133 137 139 141 143 143
175 130 44 67 119 162 142 133 116 105 84 77 94 72 63 85 115 129 136 135 127 126 133 135 134 134 130 127 124 122 120 119 120 121 121 123 126 128 128 129 130 133 135 137 141 145 147 148 147
155 95 50 64 111 120 118 116 108 104 89 89 95 95 77 77 112 126 132 133 132 128 130 134 134 134 132 130 128 126 124 124 124 123 121 122 125 127 131 134 134 135 137 140 142 146 149 151 156
49 74 68 96 91 93 99 106 99 95 102 101 101 104 97 119 123 133 132 135 135 132 132 137 136 135 136 134 132 131 129 128 128 128 127 128 129 130 133 138 140 142 143 144 147 154 159 165 169
133 90 178 143 102 109 119 115 108 115 115 115 122 106 120 135 136 135 133 131 130 129 129 134 140 142 142 139 135 134 134 133 133 132 130 132 133 137 143 144 147 149 151 154 159 163 169 179 189
173 107 296 121 122 133 139 117 124 122 117 132 128 129 152 157 138 128 126 123 124 124 128 133 135 138 141 142 139 139 139 139 137 135 134 136 139 143 147 152 156 156 159 168 178 185 191 193 196
139 70 226 184 148 152 141 116 106 103 116 126 110 132 149 144 133 126 123 119 125 131 136 136 138 141 145 146 146 148 148 147 142 136 135 138 137 144 155 164 165 167 173 180 191 204 211 213 215
138 158 216 189 163 155 143 130 130 109 108 104 103 114 132 138 137 136 138 140 140 144 150 144 144 150 150 149 144 153 157 154 147 146 140 140 143 151 152 175 180 180 185 197 211 220 234 236 251
172 192 217 176 156 144 141 137 128 126 131 145 141 142 143 141 141 143 145 146 148 148 145 144 148 151 147 141 141 152 151 152 152 148 147 146 147 156 168 197 209 210 208 230 247 265 260 229 219
181 219 219 195 150 136 146 138 132 141 155 152 146 148 147 150 153 154 152 152 146 144 148 148 148 143 144 138 146 153 145 159 165 166 159 149 154 167 183 186 206 219 223 231 244 256 252 224 195
206 258 203 194 176 159 133 130 127 131 137 141 144 147 150 156 156 157 153 152 146 148 155 152 148 145 142 138 154 154 163 170 175 174 170 161 158 165 180 198 205 220 218 218 216 236 229 197 190
218 264 200 155 161 139 124 125 112 136 139 144 149 154 158 161 158 152 151 151 150 151 153 153 147 145 142 141 147 159 173 177 174 173 175 168 164 159 157 166 184 212 223 222 205 190 198 205 174
132 42 7 177 134 140 117 109 144 149 146 151 157 158 160 163 159 159 162 159 157 157 154 152 150 144 142 147 158 154 161 160 164 173 172 166 159 157 151 132 148 220 211 175 111 65 34 79 171
18 43 18 287 155 150 116 169 175 156 151 157 163 163 165 169 166 164 162 159 157 155 155 157 153 148 149 147 147 138 151 151 153 158 158 162 165 156 148 140 182 206 138 106 93 73 57 359 39
24 70 255 276 232 162 137 176 181 165 157 165 170 169 169 169 167 168 166 163 160 159 157 156 149 151 155 150 145 139 143 142 149 154 156 162 165 159 146 148 186 164 102 71 105 64 98 64 65
243 218 242 252 245 141 152 177 177 179 167 173 174 171 168 171 174 170 167 165 162 159 155 155 150 153 155 144 127 114 110 110 127 144 159 157 159 155 143 151 163 126 93 53 56 64 53 80 148
217 216 257 267 246 135 180 180 189 194 179 177 175 172 174 179 173 166 166 164 161 157 153 158 156 165 159 149 149 142 150 149 131 148 147 143 152 151 141 131 124 118 125 145 131 98 62 29 54
233 236 263 284 287 151 175 211 200 199 193 186 178 177 177 176 169 171 169 166 167 167 166 166 168 170 170 167 168 161 155 157 153 158 144 149 150 150 146 137 142 132 121 95 84 97 86 15 78
260 221 225 223 294 29 95 319 228 217 193 187 180 177 176 178 177 173 171 170 167 171 173 174 173 171 170 161 142 124 93 75 84 118 176 203 165 155 140 145 146 140 139 166 171 135 130 145 326
260 238 216 212 170 229 144 222 259 211 199 193 187 180 182 182 176 171 170 172 175 180 177 173 170 169 171 163 157 151 154 168 194 184 184 203 184 160 155 148 144 143 153 163 184 146 140 133 149
237 246 207 181 152 135 254 159 261 189 199 210 199 188 187 183 177 175 176 177 179 180 177 173 168 172 176 173 173 166 166 177 166 147 162 187 205 182 173 169 156 158 169 171 171 154 148 154 170
219 7 27 47 75 330 250 171 252 215 207 204 199 190 184 174 172 176 177 172 176 179 174 168 167 179 181 175 172 171 170 166 150 153 166 195 223 252 205 176 168 178 184 186 193 190 183 187 185
81 85 31 358 360 263 270 153 244 231 210 195 191 188 179 170 168 168 168 170 175 175 173 170 173 180 179 175 177 179 179 174 173 177 178 179 189 236 247 204 188 198 206 198 193 197 209 205 195
217 142 163 199 224 269 319 222 253 236 213 182 172 168 168 168 166 166 171 170 173 174 175 175 178 181 180 180 187 184 179 179 181 182 179 185 196 211 222 202 194 199 203 208 189 199 220 210 209
178 188 173 150 175 202 278 283 307 262 129 126 135 146 160 160 159 161 166 174 177 176 176 176 177 181 184 185 186 184 179 176 178 179 175 186 200 208 210 198 201 206 203 211 197 210 230 213 215
166 156 99 118 150 232 275 251 230 213 176 151 155 162 162 155 155 158 163 171 176 179 178 170 169 178 184 182 184 184 181 180 179 174 175 184 199 210 202 207 210 215 215 216 210 225 234 207 224
185 114 115 126 148 158 219 267 231 201 188 172 174 167 163 163 164 164 166 172 170 166 167 172 180 180 183 183 181 178 181 183 181 184 194 193 199 204 206 208 207 210 213 213 210 219 213 210 235
176 172 147 151 198 161 166 261 290 184 184 178 175 166 163 163 162 156 155 158 163 164 165 167 172 175 179 178 174 176 175 179 183 196 207 204 205 210 212 210 205 212 215 213 209 216 217 213 228
Height
1507 1506 1506 1507 1508 1513 1512 1503 1496 1495 1495 1496 1495 1496 1499 1503 1508 1515 1512 1510 1510 1510 1509 1509 1509 1510 1510 1510 1510 1508 1505 1505 1507 1511 1514 1517 1519 1521 1523 1524 1525 1526 1527 1529 1530 1531 1532 1533 1534
1506 1506 1507 1507 1512 1521 1514 1501 1497 1496 1497 1497 1497 1499 1501 1505 1507 1509 1510 1511 1511 1511 1510 1510 1510 1511 1511 1511 1511 1510 1507 1507 1508 1512 1516 1518 1520 1522 1523 1524 1526 1527 1528 1530 1531 1532 1533 1534 1535
1507 1506 1508 1508 1513 1518 1512 1500 1497 1496 1497 1496 1499 1502 1504 1507 1509 1509 1511 1512 1512 1512 1512 1511 1511 1511 1512 1513 1513 1513 1512 1512 1514 1516 1518 1520 1521 1523 1524 1525 1526 1527 1529 1530 1531 1533 1533 1534 1535
1507 1508 1508 1512 1513 1505 1500 1498 1496 1498 1499 1499 1500 1505 1508 1510 1510 1511 1512 1513 1513 1513 1513 1512 1512 1513 1514 1515 1516 1516 1516 1517 1518 1519 1520 1522 1523 1524 1525 1526 1527 1528 1529 1531 1532 1533 1534 1535 1536
1507 1508 1511 1515 1509 1501 1496 1496 1496 1497 1500 1502 1502 1507 1511 1512 1512 1512 1513 1515 1514 1514 1515 1515 1515 1515 1516 1517 1518 1518 1519 1519 1520 1521 1522 1523 1524 1525 1526 1527 1528 1529 1530 1531 1533 1533 1534 1535 1536
1508 1508 1517 1519 1508 1500 1497 1497 1497 1500 1503 1504 1505 1509 1514 1515 1514 1515 1516 1516 1517 1517 1517 1517 1517 1518 1519 1519 1520 1521 1521 1522 1522 1523 1524 1525 1526 1526 1527 1528 1529 1530 1531 1532 1533 1534 1535 1536 1537
1509 1510 1515 1512 1508 1503 1499 1498 1498 1501 1504 1506 1506 1510 1515 1516 1516 1517 1517 1518 1519 1519 1519 1519 1520 1520 1521 1522 1522 1523 1523 1524 1524 1525 1526 1526 1527 1527 1528 1529 1530 1531 1532 1533 1533 1534 1535 1536 1537
1506 1510 1512 1509 1508 1505 1499 1498 1499 1500 1504 1507 1507 1509 1514 1516 1517 1518 1519 1520 1520 1521 1521 1521 1522 1522 1523 1523 1524 1524 1525 1525 1526 1526 1527 1527 1528 1528 1529 1530 1531 1531 1532 1533 1534 1534 1535 1536 1537
1506 1513 1515 1508 1505 1502 1498 1499 1501 1502 1504 1506 1507 1508 1511 1515 1517 1519 1520 1521 1522 1522 1522 1523 1523 1524 1524 1525 1526 1526 1526 1527 1527 1528 1528 1528 1529 1529 1529 1530 1531 1532 1532 1533 1534 1535 1536 1537 1537
1505 1513 1506 1498 1497 1498 1498 1499 1501 1504 1506 1507 1509 1511 1514 1516 1517 1519 1520 1521 1522 1523 1524 1524 1525 1525 1526 1526 1527 1527 1527 1528 1528 1529 1529 1530 1530 1530 1530 1531 1532 1532 1533 1533 1534 1535 1536 1537 1537
1502 1504 1498 1495 1494 1496 1497 1499 1500 1503 1507 1507 1508 1511 1514 1516 1518 1519 1520 1521 1522 1523 1524 1525 1526 1527 1527 1527 1528 1528 1528 1529 1529 1530 1530 1531 1531 1531 1531 1531 1532 1533 1533 1534 1534 1535 1536 1537 1537
1499 1497 1495 1495 1494 1495 1496 1498 1500 1501 1504 1506 1507 1510 1513 1516 1518 1519 1520 1522 1523 1524 1525 1526 1527 1527 1528 1528 1529 1529 1529 1529 1530 1530 1531 1532 1532 1532 1532 1532 1533 1533 1533 1534 1535 1535 1536 1536 1537
1498 1496 1494 1494 1495 1494 1496 1497 1499 1502 1504 1507 1509 1512 1514 1516 1518 1520 1521 1522 1523 1524 1525 1526 1527 1528 1528 1529 1529 1529 1530 1530 1530 1531 1531 1532 1532 1532 1533 1533 1533 1533 1534 1534 1534 1535 1535 1536 1536
1496 1494 1494 1494 1494 1495 1496 1499 1501 1505 1506 1508 1510 1512 1514 1516 1517 1519 1520 1522 1523 1524 1525 1526 1527 1528 1528 1529 1529 1530 1530 1530 1531 1531 1531 1532 1533 1533 1533 1533 1534 1534 1534 1534 1535 1535 1535 1535 1536
1496 1496 1496 1494 1494 1496 1498 1504 1503 1503 1506 1508 1510 1512 1514 1515 1517 1518 1519 1521 1522 1524 1525 1526 1527 1528 1528 1529 1530 1530 1530 1531 1531 1531 1532 1532 1533 1533 1534 1534 1534 1534 1534 1534 1534 1535 1535 1535 1535
1497 1503 1508 1498 1495 1496 1502 1513 1503 1503 1504 1507 1509 1511 1513 1515 1516 1518 1519 1521 1522 1523 1525 1526 1527 1527 1528 1529 1530 1530 1531 1531 1531 1531 1532 1532 1533 1533 1534 1534 1534 1534 1534 1534 1534 1534 1534 1534 1534
1507 1515 1513 1503 1493 1494 1500 1508 1502 1503 1503 1505 1508 1510 1511 1514 1516 1517 1518 1520 1521 1523 1524 1525 1526 1527 1528 1529 1529 1530 1530 1531 1531 1531 1532 1532 1533 1533 1533 1534 1534 1534 1534 1534 1534 1534 1534 1533 1533
1514 1513 1510 1505 1495 1495 1500 1503 1501 1502 1502 1503 1505 1508 1510 1512 1514 1516 1518 1519 1521 1522 1523 1524 1525 1526 1527 1528 1529 1529 1530 1531 1531 1531 1531 1532 1532 1533 1533 1533 1533 1533 1533 1533 1534 1533 1533 1533 1533
1500 1505 1508 1500 1491 1497 1501 1502 1500 1500 1501 1502 1504 1506 1508 1510 1512 1515 1516 1518 1520 1521 1522 1523 1524 1525 1526 1527 1528 1528 1529 1530 1530 1530 1531 1532 1532 1532 1532 1532 1533 1533 1533 1533 1533 1533 1533 1533 1533
1498 1505 1506 1499 1491 1495 1502 1502 1498 1497 1498 1497 1499 1502 1505 1509 1511 1513 1515 1516 1518 1519 1521 1522 1523 1524 1525 1526 1527 1528 1528 1529 1529 1530 1530 1531 1531 1531 1532 1532 1532 1532 1532 1532 1533 1533 1533 1533 1533
1498 1502 1501 1499 1495 1496 1502 1509 1503 1498 1497 1498 1499 1499 1502 1505 1507 1510 1512 1514 1516 1518 1519 1520 1521 1522 1524 1525 1526 1527 1528 1528 1528 1529 1529 1530 1530 1531 1531 1531 1531 1531 1531 1532 1532 1532 1533 1532 1533
1500 1487 1489 1492 1504 1512 1508 1526 1509 1500 1498 1497 1497 1499 1500 1503 1505 1507 1509 1511 1513 1515 1517 1518 1519 1521 1522 1523 1524 1525 1525 1526 1527 1528 1528 1529 1529 1530 1530 1530 1530 1530 1530 1531 1531 1532 1532 1532 1532
1487 1480 1485 1490 1501 1512 1509 1521 1515 1500 1500 1496 1494 1495 1497 1499 1502 1504 1507 1508 1511 1514 1515 1517 1518 1519 1520 1522 1523 1523 1524 1525 1526 1527 1527 1528 1528 1529 1529 1529 1529 1529 1529 1530 1530 1530 1531 1531 1531
1477 1483 1488 1495 1507 1523 1512 1518 1518 1504 1495 1491 1491 1492 1494 1497 1500 1503 1506 1508 1510 1512 1514 1515 1516 1517 1519 1520 1521 1522 1523 1524 1524 1525 1526 1526 1527 1527 1528 1528 1528 1528 1528 1528 1529 1529 1529 1529 1529
1478 1499 1520 1524 1531 1527 1509 1514 1511 1490 1484 1485 1486 1488 1492 1495 1498 1501 1504 1506 1508 1510 1511 1512 1514 1515 1516 1518 1519 1521 1521 1522 1523 1523 1524 1524 1525 1525 1526 1526 1526 1526 1527 1527 1527 1527 1527 1527 1527
1481 1494 1521 1533 1535 1526 1512 1513 1499 1483 1480 1481 1483 1486 1490 1493 1496 1498 1500 1503 1505 1507 1508 1510 1511 1512 1514 1516 1517 1519 1520 1521 1521 1522 1523 1523 1524 1524 1524 1525 1525 1525 1525 1525 1525 1525 1525 1525 1525
1481 1490 1492 1511 1518 1526 1519 1506 1492 1482 1481 1483 1485 1486 1489 1491 1494 1496 1498 1501 1503 1505 1506 1508 1509 1511 1512 1514 1516 1517 1518 1519 1519 1520 1521 1521 1522 1522 1522 1522 1522 1522 1522 1522 1522 1522 1522 1522 1523
1470 1479 1497 1512 1527 1533 1522 1513 1506 1490 1486 1484 1484 1484 1486 1489 1492 1494 1496 1499 1501 1503 1504 1506 1508 1509 1511 1512 1514 1515 1516 1517 1518 1519 1519 1519 1520 1520 1520 1520 1520 1520 1520 1520 1520 1520 1520 1520 1520
1475 1481 1493 1507 1512 1527 1531 1517 1485 1484 1481 1481 1481 1482 1485 1487 1490 1492 1494 1497 1499 1501 1503 1505 1506 1507 1509 1510 1512 1513 1514 1515 1516 1516 1516 1517 1517 1517 1517 1517 1517 1517 1517 1517 1517 1517 1517 1517 1517
1467 1475 1488 1505 1511 1515 1522 1513 1478 1477 1476 1477 1479 1481 1484 1486 1488 1490 1493 1496 1498 1499 1501 1503 1504 1505 1507 1508 1510 1511 1512 1512 1513 1513 1514 1514 1514 1515 1515 1515 1514 1514 1514 1514 1514 1514 1515 1515 1514